DW5656 Sevilla ES current weather conditions

sailwx.info

Wind from 056 at 2 knots gusting 5

Air temperature 15.0° C
Dewpoint 10.2° C

Last reported at 2018-Jan-22 12:07 UTC.
Time now 2018-Jan-22 12:38 UTC

Location: N 37°23' W 005°59'.
View on Google Maps.

See reports from other nearby stations

  
Tides and Currents Weather Stations Pressure Air Temp Water Temp Dewpoint Dewpoint Depression Visibility Wind Speed Wind Dir Waves Ship Positions
date/time (UTC)wind fromknots sea level pressurealtimeterstation pressurevisibilityair tempwater tempwave heightnotes
2018-Jan-22 12:07 056 2 gusting 5 15.0
2018-Jan-22 11:58 045 3 gusting 6 14.4
2018-Jan-22 11:49 014 3 gusting 6 14.4
2018-Jan-22 11:40 041 3 gusting 6 14.4
2018-Jan-22 11:31 043 4 gusting 8 13.9
2018-Jan-22 11:22 037 3 gusting 7 13.9
2018-Jan-22 11:13 059 2 gusting 6 13.9
2018-Jan-22 11:04 081 2 gusting 6 13.3
2018-Jan-22 10:55 074 2 gusting 5 12.8
2018-Jan-22 10:46 090 2 gusting 5 12.8
2018-Jan-22 10:37 082 2 gusting 6 12.2
2018-Jan-22 10:28 057 1 gusting 4 12.2
2018-Jan-22 10:19 067 2 gusting 5 11.7
2018-Jan-22 10:10 036 3 gusting 5 11.1
2018-Jan-22 10:01 042 2 gusting 6 11.1
2018-Jan-22 09:52 023 2 gusting 5 11.1
2018-Jan-22 09:43 034 2 gusting 5 10.6
2018-Jan-22 09:34 080 3 gusting 8 10.6
2018-Jan-22 09:25 074 2 gusting 8 10.6
2018-Jan-22 09:16 070 2 gusting 6 10.0
2018-Jan-22 09:07 059 0 gusting 6 9.4
2018-Jan-22 08:58 052 1 gusting 2 9.4
2018-Jan-22 08:49 042 2 gusting 4 8.9
2018-Jan-22 08:40 032 1 gusting 5 8.9
2018-Jan-22 08:31 049 1 gusting 4 8.3
2018-Jan-22 08:22 010 1 gusting 3 8.3
2018-Jan-22 08:13 346 1 gusting 3 7.8
2018-Jan-22 08:04 342 1 gusting 2 7.8
2018-Jan-22 07:55 342 1 gusting 2 7.2
2018-Jan-22 07:46 342 1 gusting 3 7.2
2018-Jan-22 07:37 338 1 gusting 3 7.2
2018-Jan-22 07:28 342 2 gusting 3 7.2
2018-Jan-22 07:19 359 1 gusting 4 7.8
2018-Jan-22 07:10 019 2 gusting 3 8.3
2018-Jan-22 07:01 042 3 gusting 6 8.3
2018-Jan-22 06:52 039 2 gusting 7 8.3
2018-Jan-22 06:43 036 2 gusting 4 8.3
2018-Jan-22 06:34 033 2 gusting 4 7.8
2018-Jan-22 06:25 017 2 gusting 4 7.8
2018-Jan-22 06:16 015 3 gusting 6 7.8
2018-Jan-22 06:07 025 3 gusting 6 7.8
2018-Jan-22 05:58 020 2 gusting 6 7.8
2018-Jan-22 05:49 016 2 gusting 4 7.8
2018-Jan-22 05:40 020 2 gusting 3 7.8
2018-Jan-22 05:31 016 1 gusting 4 7.8
2018-Jan-22 05:22 349 1 gusting 3 7.8
2018-Jan-22 05:13 344 1 gusting 3 7.8
2018-Jan-22 05:04 344 1 gusting 3 7.2
2018-Jan-22 04:55 337 1 gusting 4 7.8
2018-Jan-22 04:46 337 1 gusting 4 7.8
2018-Jan-22 04:37 006 2 gusting 5 7.8
2018-Jan-22 04:28 356 2 gusting 4 7.8
2018-Jan-22 04:19 010 2 gusting 4 7.8
2018-Jan-22 04:10 002 2 gusting 6 7.8
2018-Jan-22 04:01 359 3 gusting 6 8.3
2018-Jan-22 03:52 354 3 gusting 6 8.3
2018-Jan-22 03:43 348 2 gusting 6 8.9
2018-Jan-22 03:34 001 2 gusting 4 8.9
2018-Jan-22 03:25 015 2 gusting 3 9.4
2018-Jan-22 03:16 022 2 gusting 4 9.4
2018-Jan-22 03:07 022 1 gusting 3 9.4
2018-Jan-22 02:58 022 1 gusting 2 9.4
2018-Jan-22 02:49 042 1 gusting 2 8.9
2018-Jan-22 02:40 059 1 gusting 2 8.9
2018-Jan-22 02:31 059 0 gusting 3 9.4
2018-Jan-22 02:22 054 1 gusting 4 9.4
2018-Jan-22 02:13 041 1 gusting 3 9.4
2018-Jan-22 02:04 033 1 gusting 3 10.0
2018-Jan-22 01:55 032 1 gusting 3 10.0
2018-Jan-22 01:46 031 1 gusting 3 10.0
2018-Jan-22 01:37 023 1 gusting 3 10.0
2018-Jan-22 01:28 036 1 gusting 3 10.0
2018-Jan-22 01:19 336 1 gusting 3 10.0
2018-Jan-22 01:10 331 1 gusting 2 10.0
2018-Jan-22 01:01 329 1 gusting 3 10.0
2018-Jan-22 00:52 326 1 gusting 3 10.0
2018-Jan-22 00:43 325 1 gusting 2 10.0
2018-Jan-22 00:34 324 0 gusting 2 10.0
2018-Jan-22 00:25 323 1 gusting 2 10.6
2018-Jan-22 00:16 323 1 gusting 2 10.6
2018-Jan-22 00:07 323 0 gusting 2 10.6
2018-Jan-21 23:58 323 0 gusting 1 10.6
2018-Jan-21 23:49 311 0 gusting 2 11.1
2018-Jan-21 23:40 201 0 gusting 1 11.1
2018-Jan-21 23:31 200 0 gusting 1 11.1
2018-Jan-21 23:22 200 0 gusting 1 11.1
2018-Jan-21 23:13 200 0 gusting 1 11.1
2018-Jan-21 23:04 200 0 gusting 1 11.7
2018-Jan-21 22:55 200 11.7
2018-Jan-21 22:46 200 11.7
2018-Jan-21 22:37 200 0 gusting 0 11.7
2018-Jan-21 22:28 201 0 gusting 1 11.7
2018-Jan-21 22:19 201 0 gusting 1 11.7
2018-Jan-21 22:10 201 0 gusting 1 12.2
2018-Jan-21 22:01 201 12.2
2018-Jan-21 21:52 201 12.2
2018-Jan-21 21:43 201 0 gusting 0 12.2
2018-Jan-21 21:34 201 0 gusting 1 12.2
2018-Jan-21 21:25 201 12.2
2018-Jan-21 21:16 201 12.2
2018-Jan-21 21:07 12.2
2018-Jan-21 20:58 201 0 gusting 2 12.2
2018-Jan-21 20:49 201 0 gusting 1 12.2
2018-Jan-21 20:40 201 0 gusting 2 12.8
2018-Jan-21 20:31 201 0 gusting 2 12.8
2018-Jan-21 20:22 201 0 gusting 2 12.8
2018-Jan-21 20:13 201 0 gusting 1 12.8
2018-Jan-21 20:04 201 1 gusting 2 13.3
2018-Jan-21 19:55 201 1 gusting 3 13.3
2018-Jan-21 19:46 201 1 gusting 3 13.3
2018-Jan-21 19:37 200 1 gusting 3 13.3
2018-Jan-21 19:28 200 1 gusting 3 13.3
2018-Jan-21 19:19 201 1 gusting 3 13.9
2018-Jan-21 19:10 205 1 gusting 3 13.9
2018-Jan-21 19:01 213 1 gusting 5 13.9
2018-Jan-21 18:52 201 1 gusting 4 13.9
2018-Jan-21 18:43 202 1 gusting 3 13.9
2018-Jan-21 18:34 198 2 gusting 4 13.9
2018-Jan-21 18:25 210 2 gusting 4 14.4
2018-Jan-21 18:16 202 2 gusting 4 14.4
2018-Jan-21 18:07 200 2 gusting 5 14.4
2018-Jan-21 17:58 205 1 gusting 6 14.4
2018-Jan-21 17:49 200 1 gusting 3 15.0
2018-Jan-21 17:40 206 2 gusting 5 15.0
2018-Jan-21 17:31 204 2 gusting 5 15.6
2018-Jan-21 17:22 212 1 gusting 4 15.6
2018-Jan-21 17:13 204 2 gusting 4 16.1
2018-Jan-21 17:04 205 2 gusting 5 16.1
2018-Jan-21 16:55 210 2 gusting 5 16.1
2018-Jan-21 16:46 212 2 gusting 6 16.7
2018-Jan-21 16:37 212 2 gusting 6 16.7
2018-Jan-21 16:28 216 2 gusting 6 16.7
2018-Jan-21 16:19 218 4 gusting 6 16.7
2018-Jan-21 16:10 207 4 gusting 7 16.7
2018-Jan-21 16:01 216 4 gusting 7 16.7
2018-Jan-21 15:52 216 3 gusting 7 17.2
2018-Jan-21 15:43 216 2 gusting 6 17.2
2018-Jan-21 15:34 216 2 gusting 6 17.8
2018-Jan-21 15:25 190 2 gusting 7 17.8
2018-Jan-21 15:16 211 1 gusting 5 17.8
2018-Jan-21 15:07 197 1 gusting 3 17.8
2018-Jan-21 14:58 224 1 gusting 4 17.8
2018-Jan-21 14:49 219 1 gusting 3 17.2
2018-Jan-21 14:40 226 1 gusting 5 17.2
2018-Jan-21 14:31 310 0 gusting 3 17.2
2018-Jan-21 14:22 315 1 gusting 3 16.7
2018-Jan-21 14:13 262 0 gusting 4 16.7
2018-Jan-21 14:04 006 1 gusting 3 16.7
2018-Jan-21 13:55 039 1 gusting 3 16.1
2018-Jan-21 13:46 013 1 gusting 3 16.1
2018-Jan-21 13:37 322 0 gusting 3 16.7
2018-Jan-21 13:28 328 0 gusting 2 16.7
2018-Jan-21 13:19 001 1 gusting 2 16.1
2018-Jan-21 13:10 360 1 gusting 3 15.6
2018-Jan-21 13:01 294 0 gusting 2 16.1
2018-Jan-21 12:52 242 0 gusting 1 15.6
2018-Jan-21 12:43 156 0 gusting 2 15.0
2018-Jan-21 12:34 126 0 gusting 2 15.0
2018-Jan-21 12:25 098 0 gusting 2 15.0
2018-Jan-21 12:16 077 0 gusting 2 14.4
2018-Jan-21 12:07 096 0 gusting 3 14.4
2018-Jan-21 11:58 202 0 gusting 3 13.9
2018-Jan-21 11:49 177 0 gusting 2 13.3
2018-Jan-21 11:40 202 0 gusting 2 13.3
2018-Jan-21 11:31 181 0 gusting 3 12.8
2018-Jan-21 11:22 133 0 gusting 3 12.2
2018-Jan-21 11:13 052 0 gusting 1 11.7
2018-Jan-21 11:04 052 0 gusting 1 11.1
2018-Jan-21 10:55 051 0 gusting 2 10.6
2018-Jan-21 10:46 051 0 gusting 1 10.0
2018-Jan-21 10:37 051 1 gusting 2 9.4
2018-Jan-21 10:28 041 2 gusting 4 8.9
2018-Jan-21 10:19 081 2 gusting 5 8.9
2018-Jan-21 10:10 060 1 gusting 5 8.9
2018-Jan-21 10:01 037 1 gusting 4 8.3
2018-Jan-21 09:52 075 0 gusting 2 8.3
2018-Jan-21 09:43 075 0 gusting 2 7.8
2018-Jan-21 09:34 075 0 gusting 2 7.8
2018-Jan-21 09:25 075 0 gusting 1 7.2
2018-Jan-21 09:16 075 1 gusting 2 6.7
2018-Jan-21 09:07 078 2 gusting 5 6.1
2018-Jan-21 08:58 036 2 gusting 4 6.1
2018-Jan-21 08:49 028 2 gusting 4 6.1
2018-Jan-21 08:40 011 2 gusting 4 6.1
2018-Jan-21 08:31 017 2 gusting 5 6.1
2018-Jan-21 08:22 027 2 gusting 4 6.1
2018-Jan-21 08:13 032 1 gusting 3 6.1
2018-Jan-21 08:04 029 1 gusting 4 6.1
2018-Jan-21 07:55 002 3 gusting 5 6.1
2018-Jan-21 07:46 015 2 gusting 6 6.1
2018-Jan-21 07:37 031 1 gusting 5 6.1
2018-Jan-21 07:28 031 2 gusting 4 6.1
2018-Jan-21 07:19 032 1 gusting 3 6.1
2018-Jan-21 07:10 032 0 gusting 3 6.7
2018-Jan-21 07:01 032 0 gusting 1 6.7
2018-Jan-21 06:52 032 0 gusting 1 6.7
2018-Jan-21 06:43 032 0 gusting 1 6.1
2018-Jan-21 06:34 035 1 gusting 2 6.1
2018-Jan-21 06:25 018 2 gusting 3 6.1
2018-Jan-21 06:16 010 2 gusting 4 6.1
2018-Jan-21 06:07 017 1 gusting 4 6.7
2018-Jan-21 05:58 014 1 gusting 2 6.7
2018-Jan-21 05:49 017 1 gusting 2 6.7
2018-Jan-21 05:40 014 1 gusting 2 6.7
2018-Jan-21 05:31 005 1 gusting 3 6.7
2018-Jan-21 05:22 227 0 gusting 3 6.7
2018-Jan-21 05:13 208 6.7
2018-Jan-21 05:04 208 6.7
2018-Jan-21 04:55 208 0 gusting 1 6.1
2018-Jan-21 04:46 208 6.1
2018-Jan-21 04:37 208 0 gusting 1 6.1
2018-Jan-21 04:28 208 6.1
2018-Jan-21 04:19 208 0 gusting 0 6.1
2018-Jan-21 04:10 208 0 gusting 2 6.1
2018-Jan-21 04:01 208 0 gusting 1 6.1
2018-Jan-21 03:52 208 0 gusting 1 6.7
2018-Jan-21 03:43 208 0 gusting 1 6.7
2018-Jan-21 03:34 208 6.7
2018-Jan-21 03:25 6.7
2018-Jan-21 03:16 208 7.2
2018-Jan-21 03:07 7.8
2018-Jan-21 02:58 208 7.8
2018-Jan-21 02:49 208 7.8
2018-Jan-21 02:40 208 7.8
2018-Jan-21 02:31 208 7.8
2018-Jan-21 02:22 208 7.8
2018-Jan-21 02:13 7.8
2018-Jan-21 02:04 7.8
2018-Jan-21 01:55 208 7.8
2018-Jan-21 01:46 208 0 gusting 1 7.8
2018-Jan-21 01:37 208 0 gusting 2 8.3
2018-Jan-21 01:28 208 8.9
2018-Jan-21 01:19 208 8.9
2018-Jan-21 01:10 208 8.9
2018-Jan-21 01:01 208 8.9
2018-Jan-21 00:52 208 0 gusting 1 8.9
2018-Jan-21 00:43 208 0 gusting 1 9.4
2018-Jan-21 00:34 208 9.4
2018-Jan-21 00:25 208 0 gusting 0 9.4
2018-Jan-21 00:16 208 0 gusting 1 10.0
2018-Jan-21 00:07 208 0 gusting 1 10.0
2018-Jan-20 23:58 208 0 gusting 2 10.0
2018-Jan-20 23:49 208 10.0
2018-Jan-20 23:40 208 10.0
2018-Jan-20 23:31 208 10.0
2018-Jan-20 23:22 208 10.0
2018-Jan-20 23:13 208 0 gusting 1 10.0
2018-Jan-20 23:04 208 0 gusting 1 10.0
2018-Jan-20 22:55 208 0 gusting 1 10.0
2018-Jan-20 22:46 208 0 gusting 2 10.0
2018-Jan-20 22:37 208 0 gusting 1 10.6
2018-Jan-20 22:28 208 0 gusting 1 10.6
2018-Jan-20 22:19 208 0 gusting 1 10.6
2018-Jan-20 22:10 208 0 gusting 2 10.6
2018-Jan-20 22:01 208 10.6
2018-Jan-20 21:52 208 1 gusting 2 11.1
2018-Jan-20 21:43 210 1 gusting 3 11.1
2018-Jan-20 21:34 211 1 gusting 3 11.1
2018-Jan-20 21:25 211 1 gusting 2 11.1
2018-Jan-20 21:16 212 0 gusting 2 11.1
2018-Jan-20 21:07 215 0 gusting 2 11.7
2018-Jan-20 20:58 214 0 gusting 3 11.7
2018-Jan-20 20:49 214 1 gusting 2 11.7
2018-Jan-20 20:40 220 2 gusting 4 12.2
2018-Jan-20 20:31 209 1 gusting 3 12.2
2018-Jan-20 20:22 203 2 gusting 4 12.2
2018-Jan-20 20:13 214 2 gusting 6 12.2
2018-Jan-20 20:04 212 2 gusting 6 12.2
2018-Jan-20 19:55 202 1 gusting 5 12.8
2018-Jan-20 19:46 195 1 gusting 3 12.8
2018-Jan-20 19:37 207 1 gusting 4 12.8
2018-Jan-20 19:28 217 2 gusting 4 13.3
2018-Jan-20 19:19 208 1 gusting 4 13.3
2018-Jan-20 19:10 209 1 gusting 3 13.3
2018-Jan-20 19:01 204 1 gusting 3 13.9
2018-Jan-20 18:52 199 0 gusting 3 13.9
2018-Jan-20 18:43 202 1 gusting 2 13.9
2018-Jan-20 18:34 204 1 gusting 3 13.9
2018-Jan-20 18:25 204 1 gusting 3 13.9
2018-Jan-20 18:16 205 1 gusting 3 13.9
2018-Jan-20 18:07 208 1 gusting 3 13.9
2018-Jan-20 17:58 202 1 gusting 3 14.4
2018-Jan-20 17:49 193 1 gusting 4 14.4
2018-Jan-20 17:40 216 2 gusting 5 14.4
2018-Jan-20 17:31 214 1 gusting 4 15.0
2018-Jan-20 17:22 206 1 gusting 3 15.0
2018-Jan-20 17:13 213 2 gusting 4 15.0
2018-Jan-20 17:04 219 1 gusting 3 15.6
2018-Jan-20 16:55 226 1 gusting 3 15.6
2018-Jan-20 16:46 220 2 gusting 5 15.6
2018-Jan-20 16:37 215 2 gusting 4 15.6
2018-Jan-20 16:28 204 2 gusting 5 16.1
2018-Jan-20 16:19 207 1 gusting 5 16.1
2018-Jan-20 16:10 207 1 gusting 4 16.1
2018-Jan-20 16:01 194 1 gusting 4 16.1
2018-Jan-20 15:52 207 1 gusting 3 16.1
2018-Jan-20 15:43 211 2 gusting 4 16.7
2018-Jan-20 15:34 203 2 gusting 3 16.7
2018-Jan-20 15:25 213 2 gusting 5 16.7
2018-Jan-20 15:16 210 2 gusting 5 16.7
2018-Jan-20 15:07 196 1 gusting 5 16.7
2018-Jan-20 14:58 210 1 gusting 5 16.7
2018-Jan-20 14:49 226 1 gusting 4 16.7
2018-Jan-20 14:40 264 1 gusting 3 16.7
2018-Jan-20 14:31 248 1 gusting 3 17.2
2018-Jan-20 14:22 220 0 gusting 3 17.2
2018-Jan-20 14:13 224 0 gusting 3 16.7
2018-Jan-20 14:04 011 0 gusting 2 16.7
2018-Jan-20 13:55 014 0 gusting 2 16.7
2018-Jan-20 13:46 015 0 gusting 2 16.7
2018-Jan-20 13:37 015 0 gusting 2 16.1
2018-Jan-20 13:28 042 0 gusting 2 16.1
2018-Jan-20 13:19 073 1 gusting 2 16.1
2018-Jan-20 13:10 080 1 gusting 3 15.6
2018-Jan-20 13:01 125 0 gusting 2 15.6
2018-Jan-20 12:52 121 1 gusting 4 15.0
2018-Jan-20 12:43 099 1 gusting 5 15.0
2018-Jan-20 12:34 113 0 gusting 2 15.0
2018-Jan-20 12:25 096 0 gusting 2 15.0
2018-Jan-20 12:16 075 1 gusting 2 14.4
2018-Jan-20 12:07 089 0 gusting 3 14.4